sim
Sign-in with your pilot id or email,
or register
Callsign
Passwort

Schedule Details

Flight Number: RYR5082 (2)
Departure: Paphos International Airport (LCPH) at 20:05
Arrival: Thessaloniki International Airport (LGTS) at 22:10
Route: Ryanair Passenger Schedule. Enter filed route here before submitting Pirep.

Weather Information
Getting current METAR information for LCPH 192230Z 01004KT 9999 FEW030 BKN040 12/10 Q1015
Getting current METAR information for LGTS 192250Z 15005KT 9999 FEW020 13/09 Q1023 NOSIG

Schedule Frequency

Route Map